CW5709 Weather Reports


Display with metric or nautical units.
time (UTC)temp
F
wind
direction
speed
MPH
gust
MPH
rain 1hr
in
rain 24hr
in
rain mn
in
humidity
%
barometer
mb
20260904163007 56 0.0 0.0 0.00 0.49 0.07 97 1012.4
20260904161514 56 0.0 0.0 0.00 0.49 0.07 97 1012.4
20260904160021 56 0.0 0.0 0.00 0.49 0.07 97 1012.3
20260904154541 55 0.0 0.0 0.00 0.49 0.07 97 1012.3
20260904153010 55 0.0 0.0 0.00 0.49 0.07 97 1012.2
20260904151513 55 0.0 0.0 0.00 0.49 0.07 97 1012.1
20260904150020 54 0.0 0.0 0.00 0.49 0.07 97 1012.0
20260904144524 54 0.0 0.0 0.00 0.49 0.07 97 1011.9
20260904143035 54 0.0 0.0 0.00 0.49 0.07 97 1011.7
20260904141508 54 0.0 0.0 0.00 0.49 0.07 97 1011.5
20260904140033 54 0.0 0.0 0.00 0.50 0.07 97 1011.2
20260904134526 54 0.0 0.0 0.00 0.50 0.07 96 1011.0
20260904133031 54 0.0 0.0 0.00 0.50 0.07 96 1010.9
20260904131531 54 0.0 0.0 0.00 0.50 0.07 96 1010.8
20260904130011 54 0.0 0.0 0.00 0.50 0.07 96 1010.7
20260904124517 54 0.0 0.0 0.00 0.50 0.07 96 1010.8
20260904123032 54 0.0 0.0 0.00 0.50 0.07 96 1010.6
20260904121527 54 0.0 0.0 0.00 0.50 0.07 96 1010.4
20260904120039 54 0.0 0.0 0.00 0.50 0.07 96 1010.3
20260904114517 54 0.0 0.0 0.00 0.50 0.07 96 1010.1
20260904113019 54 0.0 0.0 0.00 0.50 0.07 96 1010.0
20260904111526 54 0.0 0.0 0.00 0.50 0.07 96 1010.0
20260904110031 54 0.0 0.0 0.00 0.50 0.07 96 1010.0
20260904104547 54 0.0 0.0 0.00 0.50 0.07 96 1010.0
20260904103022 54 0.0 0.0 0.00 0.50 0.07 96 1010.0
20260904101524 54 0.0 0.0 0.00 0.51 0.07 95 1009.9
20260904100032 54 0.0 0.0 0.01 0.51 0.07 95 1009.9
20260904094534 54 0.0 0.0 0.01 0.52 0.07 95 1009.9
20260904093031 54 0.0 0.0 0.02 0.52 0.07 95 1009.8
20260904091522 54 0.0 0.0 0.02 0.52 0.07 95 1009.8
20260904090004 54 0.0 0.0 0.02 0.51 0.06 95 1009.8
20260904084504 54 0.0 0.0 0.03 0.51 0.06 95 1009.8
20260904083017 54 0.0 0.0 0.02 0.50 0.05 95 1009.8
20260904081516 54 0.0 0.0 0.03 0.50 0.05 95 1009.8
20260904080033 54 0.0 0.0 0.04 0.49 0.04 95 1009.9
20260904074506 54 0.0 0.0 0.05 0.48 0.03 95 1009.7
20260904073011 54 0.0 0.0 0.07 0.49 0.03 95 1009.6
20260904071511 55 0.0 0.0 0.07 0.48 0.02 95 1009.5
20260904070023 55 0.0 0.0 0.06 0.46 0.00 95 1009.6
20260904064529 55 0.0 0.0 0.05 0.44 0.44 95 1009.7
20260904063012 55 0.0 0.0 0.04 0.42 0.42 95 1009.6
20260904061510 55 0.0 0.0 0.04 0.41 0.41 95 1009.7
20260904060016 55 0.0 0.0 0.03 0.40 0.40 95 1009.7
20260904054530 55 0.0 0.0 0.02 0.39 0.39 95 1009.9
20260904053029 55 0.0 0.0 0.01 0.38 0.38 95 1010.1
20260904051508 55 0.0 0.0 0.00 0.37 0.37 95 1010.0
20260904050013 55 0.0 0.0 0.00 0.37 0.37 94 1009.9
20260904044522 55 0.0 0.0 0.00 0.37 0.37 94 1009.8
20260904043026 55 0.0 0.0 0.02 0.37 0.37 94 1009.8
20260904041529 55 0.0 0.0 0.05 0.37 0.37 94 1009.7
20260904040012 55 0.0 0.0 0.05 0.37 0.37 94 1009.8
20260904034518 55 0.0 0.0 0.05 0.37 0.37 94 1009.8
20260904033023 55 0.0 0.0 0.03 0.35 0.35 94 1009.6
20260904031526 55 0.0 0.0 0.00 0.32 0.32 94 1009.5
20260904030030 55 0.0 0.0 0.00 0.32 0.32 94 1009.6
20260904024512 55 0.0 0.0 0.00 0.32 0.32 94 1009.6
20260904023021 55 0.0 0.0 0.00 0.32 0.32 94 1009.6
20260904021538 56 0.0 0.0 0.02 0.32 0.32 94 1009.6
20260904020009 56 0.0 0.0 0.04 0.32 0.32 94 1009.7
20260904014510 56 0.0 0.0 0.04 0.32 0.32 94 1009.7
20260904013020 56 0.0 0.0 0.05 0.32 0.32 94 1009.8
20260904011532 56 0.0 0.0 0.03 0.30 0.30 94 1009.7
20260904010028 56 0.0 0.0 0.01 0.28 0.28 94 1009.7
20260904004509 56 0.0 0.0 0.02 0.28 0.28 94 1009.8
20260904003014 56 0.0 0.0 0.02 0.27 0.27 93 1009.8
20260904001518 56 0.0 0.0 0.02 0.27 0.27 93 1009.9
20260904000028 56 0.0 0.0 0.02 0.27 0.27 93 1010.0
20260903234529 57 0.0 0.0 0.02 0.27 0.26 94 1009.9
20260903233010 57 0.0 0.0 0.01 0.28 0.25 94 1010.0
20260903231516 58 0.0 0.0 0.01 0.30 0.25 94 1010.0
20260903230031 58 0.0 0.0 0.03 0.32 0.25 94 1010.0
20260903224534 57 0.0 0.0 0.04 0.33 0.24 94 1010.1
20260903223056 57 0.0 0.0 0.05 0.35 0.24 94 1010.2
20260903221513 56 0.0 0.0 0.07 0.37 0.24 94 1010.2
20260903220028 55 0.0 0.0 0.07 0.37 0.22 93 1010.3
20260903214526 56 0.0 0.0 0.09 0.37 0.20 93 1010.5
20260903213033 55 0.0 0.0 0.12 0.38 0.19 92 1010.3
20260903211531 55 0.0 0.0 0.10 0.37 0.17 91 1010.3
20260903210012 56 0.0 0.0 0.08 0.35 0.15 91 1010.7
20260903204519 56 0.0 0.0 0.04 0.31 0.11 91 1010.6
20260903203026 57 0.0 0.0 0.00 0.28 0.07 90 1010.5
20260903201530 58 0.0 0.0 0.00 0.28 0.07 91 1010.4
20260903200035 58 0.0 0.0 0.00 0.29 0.07 90 1010.4
20260903194522 58 0.0 0.0 0.00 0.29 0.07 90 1010.4
20260903193024 58 0.0 0.0 0.00 0.30 0.07 92 1010.6
20260903191529 57 0.0 0.0 0.00 0.30 0.07 93 1010.7
20260903190034 57 0.0 0.0 0.00 0.30 0.07 93 1010.7
20260903184532 57 0.0 0.0 0.01 0.31 0.07 93 1010.8
20260903183023 56 0.0 0.0 0.01 0.32 0.07 93 1010.7
20260903181527 57 0.0 0.0 0.02 0.34 0.07 94 1010.6
20260903180035 56 0.0 0.0 0.02 0.34 0.07 94 1010.5
20260903174532 56 0.0 0.0 0.02 0.35 0.06 94 1010.6
20260903173025 56 0.0 0.0 0.02 0.39 0.06 94 1010.7
20260903171528 56 0.0 0.0 0.01 0.40 0.05 94 1010.7
20260903170006 56 0.0 0.0 0.01 0.41 0.05 94 1010.6
20260903164509 55 0.0 0.0 0.00 0.42 0.04 94 1010.7